Hlavní strana
METAR-TAF:

METAR-TAF

Letiště :

Harrisburg-Raleigh Airport

Harrisburg, Illinois, Spojené státy americké

zeměpisná šířka: 37-48-41N, zeměpisná délka: 088-32-57W, výška: 121 m

Aktuální stav počasí

Zpráva byla vytvořena před 24 minutami, v 02:55 UTC
Bezvětří
Teplota -3°C
Vlhkost vzduchu 80%
Tlak 1034 hPa
Viditelnost: 16.1 km
Jasno

METAR: KHSB 220255Z AUTO 00000KT 10SM CLR M03/M06 A3054 RMK AO2 T10351056

Čas: 21:19 (03:19 UTC)


TAF: chybějící

Stav a předpovědi počasí z více než 4 000 letišť (zprávy METAR a TAF).

Červené a žluté tečky na mapě představují dostupné meteorologické stanice.

Když kurzor umístíte na tečku, zobrazí se název stanice.

Pak kliknutím zobrazíte stav a předpověď počasí.

Chcete-li změnit mapu, kliknutím na zelené tlačítko se znaménkem +mapu přiblížíte, kliknutím na zelené tlačítko se znaménkem – mapu oddálíte a kliknutím na zelené šipky přejdete na sousední mapy.


METAR-TAF: